Probability
0 0 0 0 0 0 0 0 0 0 0 0 1 0 0 0 0 0 0 0 0 0 0 0 0 0 0 0 0 0 0 0 0 0 0 0 0 0
0 0 0 0 0 0 0 0 0 0 0 0 1 0 0 0 0 0 0 0 0 0 0 0 0 0 0 0 0 0 0 0 0 0 0 0 0 0
0 0 0 0 0 0 0 0 0 0 0 0 0 0 0 0 0 0 0 0 0 0 0 0 0 0 0 0 0 0 0 0 0 0 0 0 0 0
0 0 0 0 0 0 0 0 0 0 0 0 0 0 0 0 0 0 0 0 0 0 0 0 0 0 0 0 0 0 0 0 0 0 0 0 0 0
0 0 0 0 0 0 0 0 0 0 0 0 0 0 0 0 0 0 0 0 0 0 0 0 0 0 0 0 0 0 0 0 0 0 0 0 0 0
0 0 0 0 0 0 0 0 0 0 0 0 0 0 0 0 0 0 0 0 0 0 0 0 0 0 0 0 0 0 0 0 0 0 0 0 0 0
0 0 0 0 0 0 0 0 0 0 0 0 0 0 0 0 0 0 0 0 0 0 0 0 0 0 0 0 0 0 0 0 0 0 0 0 0 0
0 0 0 0 0 0 0 0 0 0 0 0 0 0 0 0 0 0 0 0 0 0 0 0 0 0 0 0 0 0 0 0 0 0 0 0 0 0
0 0 0 0 0 0 0 0 0 0 0 0 0 0 0 0 0 0 0 0 0 0 0 0 0 0 0 0 0 0 0 0 0 0 0 0 0 0
0 0 0 0 0 0 0 0 0 0 0 0 0 0 0 0 0 0 0 0 0 0 0 0 0 0 0 0 0 0 0 0 0 0 0 0 0 0
0 0 0 0 0 0 0 0 0 0 0 0 0 0 0 0 0 0 0 0 0 0 0 0 0 0 0 0 0 0 0 0 0 0 0 0 0 0
0 0 0 0 0 0 0 0 0 0 0 0 0 0 0 0 0 0 0 0 0 0 0 0 0 0 0 0 0 0 0 0 0 0 0 0 0 0
0 0 0 0 0 0 0 0 0 0 0 0 0 0 0 0 0 0 0 0 0 0 0 0 0 0 0 0 0 0 0 0 0 0 0 0 0 0
0 0 0 0 0 0 0 0 0 0 0 0 0 0 0 0 0 0 0 0 0 0 0 0 0 0 0 0 0 0 0 0 0 0 0 0 0 0
0 0 0 0 0 0 0 0 0 0 0 0 0 0 0 0 0 0 0 0 0 0 0 0 0 0 0 0 0 0 0 0 0 0 0 0 0 0
0 0 0 0 0 0 0 0 0 0 0 0 0 0 0 0 0 0 0 0 0 0 0 0 0 0 0 0 0 0 0 0 0 0 0 0 0 0
0 0 0 0 0 0 0 0 0 0 0 0 0 0 0 0 0 0 0 0 0 0 0 0 0 0 0 0 0 0 0 0 0 0 0 0 0 0
0 0 0 0 0 0 0 0 0 0 0 0 0 0 0 0 0 0 0 0 0 0 0 0 0 0 0 0 0 0 0 0 0 0 0 0 0 0
0 0 0 0 0 0 0 0 0 0 0 0 0 0 0 0 0 0 0 0 0 0 0 0 0 0 0 0 0 0 0 0 0 0 0 0 0 0
0 0 0 0 0 0 0 0 0 0 0 0 0 0 0 0 0 0 0 0 0 0 0 0 0 0 0 0 0 0 0 0 0 0 0 0 0 0
0 0 0 0 0 0 0 0 0 0 0 0 0 0 0 0 0 0 0 0 0 0 0 0 0 0 0 0 0 0 0 0 0 0 0 0 0 0
0 0 0 0 0 0 0 0 0 0 0 0 0 0 0 0 0 0 0 0 0 0 0 0 0 0 0 0 0 0 0 0 0 0 0 0 0 0
0 0 0 0 0 0 0 0 0 0 0 0 0 0 0 0 0 0 0 0 0 0 0 0 0 0 0 0 0 0 0 0 0 0 0 0 0 0
Wind_Speed
3 4 3 3 3 4 4 4 5 7 7 5 3 3 4 4 5 6 6 7 9 9 9 9 9 9 10 11 11 12 12 12 12 11 11 11 11 11
3 4 4 4 4 4 4 4 5 6 7 5 4 4 4 5 5 6 6 7 8 8 9 9 9 10 10 11 11 12 11 11 9 9 9 10 11 11
4 5 5 5 4 4 4 4 5 5 7 7 5 5 5 5 5 5 5 6 5 7 9 9 9 9 10 10 10 10 10 9 9 9 9 10 11 11
5 5 6 5 6 4 4 5 5 5 6 8 6 5 6 6 6 6 5 5 5 6 8 8 8 8 9 9 9 9 9 8 8 8 9 10 11 11
5 6 6 6 6 5 6 5 5 5 5 6 7 5 5 4 5 5 5 5 5 6 7 7 7 9 9 9 9 8 8 8 8 8 9 10 11 12
5 6 6 6 6 6 5 6 5 6 6 6 6 5 5 5 4 4 5 4 5 5 5 6 7 9 9 8 8 7 8 8 9 9 9 10 10 12
6 6 6 6 7 6 5 6 6 5 5 5 5 5 5 4 4 4 5 5 5 3 4 5 5 5 5 6 6 7 8 9 9 9 9 10 11 12
6 6 6 5 6 6 7 7 7 7 6 6 5 6 6 5 4 4 4 5 5 2 4 5 4 5 5 4 7 9 9 9 10 10 10 11 12 12
6 6 5 5 6 6 6 7 7 8 8 7 7 7 7 6 5 5 5 6 6 4 4 6 4 5 5 5 9 9 9 9 10 10 11 12 12 12
6 6 6 6 6 7 6 6 6 6 7 6 6 7 6 5 5 5 5 5 5 4 4 5 4 5 5 6 8 8 9 10 10 11 12 12 13 13
6 6 6 7 8 8 6 6 6 6 6 7 8 7 7 7 5 3 3 4 5 4 3 4 4 5 5 5 6 9 10 10 11 11 12 12 13 12
5 5 6 7 8 8 6 6 7 7 6 6 6 5 5 4 4 4 4 4 4 4 2 3 3 4 4 3 4 6 6 8 10 11 11 12 12 8
5 5 5 8 8 8 8 6 7 8 6 5 4 4 4 3 4 4 4 4 5 5 3 3 3 3 4 5 5 5 5 6 6 7 8 11 12 9
6 5 6 9 9 9 7 7 8 7 4 4 3 3 3 4 4 4 4 4 5 6 6 5 4 4 4 5 5 5 5 6 6 6 6 8 9 10
5 7 9 9 8 6 6 7 5 3 3 3 3 4 4 4 4 3 4 3 4 5 5 5 5 4 4 5 5 5 6 6 5 5 6 6 6 6
5 6 7 7 6 6 5 4 3 3 4 3 4 4 3 3 3 3 4 4 4 4 3 4 4 4 4 6 6 6 5 5 5 6 6 6 5 5
6 4 4 4 4 4 4 3 3 3 3 3 3 3 3 3 4 3 3 3 4 4 4 4 4 4 5 6 5 5 5 5 5 5 6 6 5 5
5 4 4 4 4 4 4 4 3 3 3 3 3 3 4 4 4 3 3 3 4 4 3 4 4 4 4 3 3 5 4 5 5 5 5 5 6 5
3 4 4 4 4 4 4 4 4 4 3 3 4 4 4 4 4 4 3 4 4 4 3 3 3 3 4 6 4 3 5 5 5 5 4 4 5 6
4 4 5 5 5 5 5 5 4 4 3 3 4 4 4 4 4 4 4 4 4 3 3 3 3 3 4 5 5 5 7 6 5 5 5 5 5 6
4 5 5 5 5 5 5 5 5 4 4 4 4 4 4 3 4 4 4 4 3 3 4 4 4 5 4 3 3 4 5 7 8 6 5 4 4 4
5 5 5 5 5 5 5 5 5 4 4 4 4 4 4 4 4 5 4 4 3 3 4 3 4 3 3 3 4 5 6 7 7 8 8 6 4 3
6 6 5 5 5 5 5 5 6 5 4 4 4 4 4 4 4 4 4 3 3 3 2 3 3 3 3 3 3 4 6 7 6 6 5 7 8 7
Wind_Direction
319 312 306 308 305 299 295 288 286 288 284 284 288 304 305 298 296 294 292 298 294 293 293 294 293 295 296 296 296 294 292 293 295 297 298 298 298 298
324 316 312 310 306 305 300 296 286 283 286 298 301 306 299 296 299 297 298 300 289 291 293 291 291 292 295 296 296 294 293 292 296 301 302 302 302 301
321 315 311 311 308 309 305 300 295 292 285 294 299 302 298 299 306 304 302 302 300 295 294 293 292 294 296 297 297 298 297 297 299 300 303 304 303 304
310 307 304 307 307 307 303 298 295 293 289 292 297 300 299 299 303 305 310 305 301 302 300 298 299 301 301 301 302 302 302 303 304 305 307 308 308 309
305 300 298 301 300 304 301 298 297 295 293 288 294 303 301 299 304 306 311 308 309 311 308 300 303 304 302 303 304 306 309 310 311 312 313 313 313 313
305 299 297 296 295 299 296 297 298 294 290 285 288 296 297 304 300 302 306 311 313 315 308 313 310 307 304 304 304 304 306 309 312 312 312 312 313 313
303 303 302 302 301 297 294 297 296 288 287 287 289 293 290 296 293 302 300 310 309 304 314 312 315 312 311 309 307 307 311 311 310 310 311 311 312 312
302 304 303 297 299 297 299 297 292 286 284 282 284 283 286 292 298 291 294 303 300 318 314 306 311 307 310 311 311 312 310 310 310 311 312 310 309 307
302 302 302 305 302 303 304 302 299 298 289 280 277 280 285 288 288 285 285 289 289 306 307 297 305 299 308 305 307 306 307 308 310 311 311 311 309 306
304 300 300 301 304 308 306 305 306 307 304 300 292 292 294 293 286 284 290 293 290 293 296 288 300 302 312 308 306 305 308 309 310 311 311 311 310 308
305 302 302 302 304 308 305 302 303 307 316 311 303 300 301 301 298 285 278 282 290 293 289 281 299 310 305 302 310 310 308 307 308 311 313 314 314 313
306 303 301 304 309 310 306 300 299 305 309 310 308 310 311 309 308 291 282 279 291 286 283 289 290 310 300 296 309 312 310 309 311 314 315 316 316 313
302 303 303 304 305 309 310 303 300 305 302 299 299 303 308 309 313 312 301 284 280 276 283 291 287 291 282 295 300 306 310 312 312 311 312 314 314 314
298 301 304 305 306 309 310 310 312 314 303 298 294 295 301 305 312 314 312 308 301 289 283 282 278 278 284 286 288 301 309 308 307 308 311 313 314 313
301 302 306 309 311 309 309 313 315 307 302 301 300 302 306 303 303 308 314 310 305 300 296 291 284 279 277 277 284 293 303 306 307 309 312 313 313 315
315 314 313 314 315 317 316 315 311 308 302 295 296 299 302 303 298 303 303 308 306 308 325 319 303 287 284 286 279 282 288 290 303 309 312 311 311 306
317 311 308 312 314 315 315 317 313 311 309 306 300 298 297 299 301 306 302 297 293 300 320 336 337 322 299 284 281 278 283 292 297 309 312 309 307 305
319 303 301 301 301 304 305 305 303 304 306 303 298 293 293 295 298 299 295 292 292 297 308 319 324 323 313 296 271 284 297 301 304 305 303 301 305 311
307 300 299 300 301 300 299 298 298 301 303 294 293 295 296 297 296 294 293 295 293 296 301 302 303 314 313 315 320 327 314 308 306 305 305 304 302 307
301 298 297 297 298 296 295 295 297 298 294 291 288 288 288 289 291 291 289 290 292 298 301 299 299 303 302 299 303 309 315 307 308 309 315 315 311 306
299 295 293 293 292 292 291 290 290 288 288 287 283 283 282 280 282 283 285 288 286 286 289 297 312 318 304 292 292 301 315 327 325 315 316 316 322 324
296 294 294 292 290 286 285 285 287 285 284 280 280 280 278 274 275 275 274 278 279 283 292 303 313 313 308 303 307 309 319 332 336 340 337 326 317 311
299 294 292 290 286 283 281 280 282 281 278 276 276 276 275 272 273 270 270 272 278 284 301 310 316 323 321 312 312 316 324 331 336 344 350 352 347 332